Location: ????????
(60.4333°N, 46.4710°E)
Time: 04:21:53
(UTC+00:00)

Cosmos 962 Rocket - Pass Details

Date: 25 November 2020
Orbit: 950 x 1000 km, 82.9° (Epoch: 19 January)

Event Time Altitude Azimuth Distance (km) Brightness Sun altitude
Rises 14:10:26 0° 345° (NNW) 3,730 7.5 -14.4°
Reaches altitude 10° 14:12:59 10° 347° (NNW) 2,772 6.8 -14.7°
Maximum altitude 14:19:23 86° 76° (ENE) 997 4.5 -15.5°
Drops below altitude 10° 14:25:39 10° 167° (SSE) 2,722 6.8 -16.2°
Sets 14:28:08 0° 168° (SSE) 3,658 7.5 -16.5°
